TimeMST,TemperatureF,Dew PointF,Humidity,Sea Level PressureIn,VisibilityMPH,Wind Direction,Wind SpeedMPH,Gust SpeedMPH,PrecipitationIn,Events,Conditions,WindDirDegrees,DateUTC
12:57 AM,54.0,51.1,90,30.05,10.0,Calm,Calm,-,N/A,,Clear,0,2013-08-05 07:57:00
1:57 AM,52.0,48.9,89,30.06,10.0,Calm,Calm,-,N/A,,Clear,0,2013-08-05 08:57:00
2:57 AM,52.0,48.0,86,30.07,10.0,Calm,Calm,-,N/A,,Clear,0,2013-08-05 09:57:00
3:57 AM,51.1,48.0,89,30.06,10.0,Calm,Calm,-,N/A,,Clear,0,2013-08-05 10:57:00
4:57 AM,51.1,48.0,89,30.06,10.0,Calm,Calm,-,N/A,,Mostly Cloudy,0,2013-08-05 11:57:00
5:57 AM,52.0,48.0,86,30.09,10.0,Calm,Calm,-,N/A,,Overcast,0,2013-08-05 12:57:00
6:57 AM,57.9,50.0,75,30.08,10.0,Calm,Calm,-,N/A,,Clear,0,2013-08-05 13:57:00
7:57 AM,66.9,46.0,47,30.06,10.0,Calm,Calm,-,N/A,,Clear,0,2013-08-05 14:57:00
8:57 AM,71.1,46.0,41,30.06,10.0,Calm,Calm,-,N/A,,Clear,0,2013-08-05 15:57:00
9:57 AM,73.9,41.0,30,30.05,10.0,Variable,3.5,-,N/A,,Clear,0,2013-08-05 16:57:00
10:57 AM,75.0,39.9,28,30.05,10.0,SW,5.8,-,N/A,,Mostly Cloudy,230,2013-08-05 17:57:00
11:57 AM,77.0,45.0,32,30.04,10.0,SSW,11.5,-,N/A,,Mostly Cloudy,210,2013-08-05 18:57:00
12:57 PM,75.9,45.0,33,30.04,10.0,WSW,4.6,18.4,N/A,,Partly Cloudy,250,2013-08-05 19:57:00
1:57 PM,77.0,46.0,33,30.03,10.0,SW,8.1,-,N/A,,Mostly Cloudy,230,2013-08-05 20:57:00
2:57 PM,77.0,43.0,30,30.00,10.0,Calm,Calm,-,N/A,,Overcast,0,2013-08-05 21:57:00
3:57 PM,75.9,43.0,31,29.99,10.0,Calm,Calm,-,N/A,,Overcast,0,2013-08-05 22:57:00
4:30 PM,66.2,48.2,52,30.29,10.0,SSE,12.7,25.3,0.00,Rain-Thunderstorm,Light Thunderstorms and Rain,160,2013-08-05 23:30:00
4:57 PM,60.1,54.0,80,30.05,10.0,South,8.1,18.4,0.04,Rain-Thunderstorm,Light Thunderstorms and Rain,190,2013-08-05 23:57:00
5:57 PM,62.1,55.0,78,30.05,10.0,NNE,10.4,-,0.00,,Overcast,30,2013-08-06 00:57:00
6:57 PM,60.1,55.9,86,30.05,10.0,WNW,4.6,-,0.02,Rain,Light Rain,300,2013-08-06 01:57:00
7:57 PM,57.9,55.0,90,30.01,10.0,WNW,3.5,-,0.00,,Mostly Cloudy,300,2013-08-06 02:57:00
8:57 PM,59.0,55.0,87,30.01,10.0,Calm,Calm,-,N/A,,Overcast,0,2013-08-06 03:57:00
9:57 PM,60.1,53.1,78,30.00,10.0,Calm,Calm,-,N/A,,Overcast,0,2013-08-06 04:57:00
10:57 PM,60.1,52.0,75,29.99,10.0,Calm,Calm,-,N/A,,Scattered Clouds,0,2013-08-06 05:57:00
11:57 PM,57.9,53.1,84,29.99,10.0,Calm,Calm,-,N/A,,Mostly Cloudy,0,2013-08-06 06:57:00